Waarnemingen

Advertentie
Mijn weer
Shoreham Airport, Groot Brittannië (3876): temperatuur & dauwpunt: 17.10.2017 23:00:00 - 23.10.2017 23:00:00 (BST)Shoreham Airport, Groot Brittannië (3876): windsnelheid & windstoten: 17.10.2017 23:00:00 - 23.10.2017 23:00:00 (BST)Shoreham Airport, Groot Brittannië (3876): windrichting: 17.10.2017 23:00:00 - 23.10.2017 23:00:00 (BST)Shoreham Airport, Groot Brittannië (3876): luchtdruk: 17.10.2017 23:00:00 - 23.10.2017 23:00:00 (BST)Shoreham Airport, Groot Brittannië (3876): zicht: 17.10.2017 23:00:00 - 23.10.2017 23:00:00 (BST)Shoreham Airport, Groot Brittannië (3876): neerslag: 17.10.2017 23:00:00 - 23.10.2017 23:00:00 (BST)
Datum & Tijd tt [°C] td [°C] ff [km/u] ff [kn] fx [km/u] fx [kn] dd ppp [hPa] vv [km] rr [mm]
23.10.2017 23:00:00 14,4 13,9 11 6 - - W 1019,0 - 0,0
23.10.2017 22:00:00 14,5 14,0 21 11 - - WZW 1018,9 - 0,0
23.10.2017 21:00:00 14,6 14,2 11 6 - - WZW 1018,4 - 0,0
23.10.2017 20:00:00 14,8 14,4 18 10 - - WZW 1018,3 - 0,0
23.10.2017 19:00:00 15,0 14,7 15 8 - - WZW 1018,3 4,0 0,0
23.10.2017 18:00:00 15,1 14,7 21 11 - - WZW 1017,9 3,0 0,0
23.10.2017 17:00:00 15,2 14,9 21 11 - - WZW 1017,5 4,5 0,0
23.10.2017 16:00:00 15,3 15,0 16 9 - - WZW 1017,5 3,8 0,0
23.10.2017 15:00:00 15,3 15,0 22 12 - - WZW 1017,7 3,5 0,2
23.10.2017 14:00:00 15,2 15,0 26 14 - - ZW 1017,6 1,8 0,0
23.10.2017 13:00:00 14,9 14,6 31 17 46 25 ZW 1017,9 2,5 0,2
23.10.2017 12:00:00 14,4 14,0 26 14 - - ZW 1018,4 3,5 0,2
23.10.2017 11:00:00 14,1 13,6 24 13 - - ZW 1018,7 2,5 0,8
23.10.2017 10:00:00 13,9 13,3 21 11 - - WZW 1019,0 5 -
23.10.2017 09:00:00 13,3 12,6 21 11 - - ZW 1019,1 4,0 -
23.10.2017 08:00:00 11,8 10,9 8 4 - - ZW 1018,9 8 -
23.10.2017 07:00:00 11,4 10,7 5 3 - - WNW 1019,2 - -
23.10.2017 06:00:00 9,7 8,9 2 1 - - W 1019,5 - -
23.10.2017 05:00:00 9,6 8,7 2 1 - - O 1019,4 - 0,0
23.10.2017 04:00:00 9,4 7,9 2 1 - - NNO 1019,5 - 0,0
23.10.2017 03:00:00 10,2 8,4 5 3 - - WNW 1019,6 - 0,0
23.10.2017 02:00:00 10,7 8,7 13 7 - - W 1019,6 - 0,0
23.10.2017 01:00:00 10,9 8,8 15 8 - - W 1019,5 - 0,0
23.10.2017 00:00:00 10,9 9,1 15 8 - - W 1019,7 - 0,0
22.10.2017 23:00:00 10,8 9,5 18 10 - - W 1019,7 - 0,0
22.10.2017 22:00:00 10,5 9,4 13 7 - - W 1019,4 - 0,0
22.10.2017 21:00:00 10,6 9,5 16 9 - - W 1018,8 - -
22.10.2017 20:00:00 10,8 9,6 15 8 - - W 1018,4 - 0,2
22.10.2017 19:00:00 10,8 9,4 18 10 - - W 1017,6 10 0,0
22.10.2017 18:00:00 10,9 9,5 13 7 - - W 1017,1 10 0,6
22.10.2017 17:00:00 12,5 8,3 21 11 - - W 1016,3 10 0,0
22.10.2017 16:00:00 12,3 6,7 22 12 48 26 WNW 1016,3 10 0,0
22.10.2017 15:00:00 13,6 5,2 28 15 50 27 WNW 1015,7 10 0,0
22.10.2017 14:00:00 13,1 5,2 31 17 57 31 W 1015,7 10 0,0
22.10.2017 13:00:00 12,0 4,0 31 17 48 26 WNW 1015,3 10 0,0
22.10.2017 12:00:00 12,5 5,5 31 17 52 28 W 1014,9 10 0,0
22.10.2017 11:00:00 11,8 6,2 29 16 - - W 1014,0 10 0,0
22.10.2017 10:00:00 10,5 6,2 24 13 - - W 1013,6 10 0,0
22.10.2017 09:00:00 9,6 6,1 26 14 - - W 1013,0 10 0,0
22.10.2017 08:00:00 8,8 5,8 22 12 - - W 1012,6 - 0,0
22.10.2017 07:00:00 8,9 6,0 21 11 - - W 1012,1 - 0,0
22.10.2017 06:00:00 9,9 6,8 22 12 - - W 1011,2 - 0,0
22.10.2017 05:00:00 9,8 7,2 21 11 - - W 1010,5 - 0,0
22.10.2017 04:00:00 10,8 7,9 24 13 - - W 1009,4 - -
22.10.2017 03:00:00 11,1 8,2 24 13 48 26 W 1008,7 - 0,0
22.10.2017 02:00:00 11,3 8,6 34 18 52 28 W 1007,9 - 0,0
22.10.2017 01:00:00 12,2 8,5 34 18 54 29 W 1007,3 - 0,0
22.10.2017 00:00:00 12,4 8,9 35 19 52 28 W 1006,8 - 0,0
21.10.2017 23:00:00 12,0 9,2 29 16 57 31 W 1005,9 - 0,0
21.10.2017 22:00:00 12,5 10,6 34 18 61 33 W 1005,2 - 0,4
21.10.2017 21:00:00 12,3 11,4 48 26 76 41 WZW 1004,5 - 0,8
21.10.2017 20:00:00 12,7 10,6 44 24 81 44 WZW 1004,5 9 0,6
21.10.2017 19:00:00 12,8 9,7 52 28 80 43 WZW 1004,7 5 0,4
21.10.2017 18:00:00 12,6 9,9 48 26 81 44 WZW 1004,9 4,5 0,0
21.10.2017 17:00:00 13,1 9,2 52 28 80 43 WZW 1004,9 8 0,0
21.10.2017 16:00:00 14,5 8,4 50 27 72 39 WZW 1004,9 9 0,0
21.10.2017 15:00:00 14,8 9,3 54 29 78 42 ZW 1004,7 9 0,0
21.10.2017 14:00:00 14,8 9,0 54 29 78 42 WZW 1004,8 10 0,0
21.10.2017 13:00:00 14,8 10,1 50 27 74 40 WZW 1004,8 9 0,0
21.10.2017 12:00:00 11,8 10,0 57 31 81 44 ZW 1004,8 10 1,0
21.10.2017 11:00:00 13,1 10,7 55 30 78 42 ZW 1004,8 10 0,4
21.10.2017 10:00:00 14,5 10,3 54 29 74 40 ZW 1004,8 10 0,6
21.10.2017 09:00:00 13,4 11,2 44 24 83 45 ZW 1005,0 - 0,8
21.10.2017 08:00:00 14,4 10,8 44 24 76 41 ZW 1004,4 - 0,2
21.10.2017 07:00:00 14,6 12,2 37 20 61 33 ZW 1004,2 - -
21.10.2017 06:00:00 14,3 13,2 37 20 61 33 ZW 1004,1 - -
21.10.2017 05:00:00 14,8 13,2 35 19 54 29 ZW 1003,4 - -
21.10.2017 04:00:00 14,3 12,9 34 18 46 25 ZW 1003,8 - -
21.10.2017 03:00:00 14,3 13,4 35 19 57 31 ZW 1003,6 - -
21.10.2017 02:00:00 15,3 14,3 39 21 59 32 Z 1003,6 - -
21.10.2017 01:00:00 15,0 13,6 37 20 59 32 Z 1004,4 - -
21.10.2017 00:00:00 14,3 12,8 34 18 48 26 Z 1005,9 - -
20.10.2017 23:00:00 15,6 11,6 29 16 46 25 Z 1006,7 - -
20.10.2017 22:00:00 15,5 10,8 28 15 - - Z 1007,9 - -
20.10.2017 21:00:00 15,2 10,9 28 15 - - ZZW 1008,6 - 0,0
20.10.2017 20:00:00 14,6 10,3 28 15 - - ZZW 1009,3 10 0,0
20.10.2017 19:00:00 14,4 9,3 28 15 - - ZW 1009,9 10 0,0
20.10.2017 18:00:00 14,4 10,4 24 13 - - ZW 1009,8 10 0,0
20.10.2017 17:00:00 14,0 9,1 29 16 50 27 WZW 1009,8 10 0,0
20.10.2017 16:00:00 14,4 8,2 28 15 48 26 WZW 1010,0 10 0,0
20.10.2017 15:00:00 13,9 7,1 34 18 57 31 WZW 1009,8 10 0,0
20.10.2017 14:00:00 14,6 7,4 35 19 57 31 WZW 1009,3 10 0,0
20.10.2017 13:00:00 14,3 7,7 35 19 54 29 WZW 1008,7 10 0,0
20.10.2017 12:00:00 14,6 9,0 35 19 61 33 W 1008,2 10 0,0
20.10.2017 11:00:00 13,1 8,5 41 22 65 35 W 1007,5 - 0,0
20.10.2017 10:00:00 13,3 9,6 39 21 55 30 W 1006,3 - 0,0
20.10.2017 09:00:00 12,8 9,7 37 20 52 28 W 1005,1 - 0,0
20.10.2017 08:00:00 13,1 9,7 35 19 63 34 W 1003,4 - 0,0
20.10.2017 07:00:00 13,5 10,5 42 23 70 38 WZW 1001,8 - 0,0
20.10.2017 06:00:00 13,8 10,9 48 26 70 38 WZW 1000,8 - 0,0
20.10.2017 05:00:00 13,8 11,1 50 27 70 38 WZW 1000,0 - 0,0
20.10.2017 04:00:00 13,1 11,9 46 25 78 42 WZW 999,9 - 0,8
20.10.2017 03:00:00 14,0 11,0 42 23 67 36 ZW 999,9 - 0,0
20.10.2017 02:00:00 14,1 10,3 44 24 61 33 ZW 1000,2 - 0,0
20.10.2017 01:00:00 14,0 10,5 41 22 54 29 ZW 1000,3 - 0,0
20.10.2017 00:00:00 14,2 13,2 31 17 61 33 ZW 999,9 - 1,0
19.10.2017 23:00:00 14,5 13,5 48 26 72 39 Z 1000,0 - 0,6
19.10.2017 22:00:00 14,2 12,9 35 19 68 37 Z 1000,7 - 4,6
19.10.2017 21:00:00 14,7 13,0 29 16 59 32 ZZW 1001,3 - 1,2
19.10.2017 20:00:00 16,4 14,2 26 14 - - Z 1001,7 10 0,0
19.10.2017 19:00:00 16,4 14,8 24 13 - - Z 1001,7 9 0,0
19.10.2017 18:00:00 16,2 14,6 21 11 - - Z 1002,2 7 0,0
19.10.2017 17:00:00 16,1 15,0 21 11 - - Z 1002,5 6 0,6
19.10.2017 16:00:00 16,0 14,6 22 12 - - ZZW 1002,8 7 0,0
19.10.2017 15:00:00 16,3 15,1 28 15 - - ZZW 1002,7 3,5 0,0
19.10.2017 14:00:00 16,5 15,3 24 13 - - ZZW 1002,8 5 0,0
19.10.2017 13:00:00 16,3 14,9 18 10 - - Z 1003,4 6 0,0
19.10.2017 12:00:00 16,2 14,5 18 10 - - ZZO 1004,4 8 0,0
19.10.2017 11:00:00 16,0 14,9 13 7 - - ZO 1004,8 9 0,0
19.10.2017 10:00:00 16,2 14,8 11 6 - - OZO 1004,7 6 0,0
19.10.2017 09:00:00 15,8 15,0 15 8 - - OZO 1005,5 6 0,0
19.10.2017 08:00:00 15,5 15,1 13 7 - - O 1005,7 3,2 0,0
19.10.2017 07:00:00 15,8 15,5 13 7 - - OZO 1006,0 - 0,0
19.10.2017 06:00:00 15,7 15,5 11 6 - - OZO 1007,0 - 0,0
19.10.2017 05:00:00 15,3 15,1 9 5 - - O 1007,1 - 0,0
19.10.2017 04:00:00 14,8 14,6 5 3 - - OZO 1007,8 - 0,0
19.10.2017 03:00:00 15,1 14,8 4 2 - - OZO 1008,7 - 0,0
19.10.2017 02:00:00 15,7 15,4 8 4 - - ZO 1009,3 - 0,0
19.10.2017 01:00:00 15,7 15,4 5 3 - - ZO 1009,3 - 0,0
19.10.2017 00:00:00 15,8 15,5 9 5 - - ZZO 1009,9 - 0,0
18.10.2017 23:00:00 15,5 15,1 8 4 - - ZO 1010,1 - 0,8
18.10.2017 22:00:00 15,7 15,2 9 5 - - OZO 1010,0 - 0,0
18.10.2017 21:00:00 15,6 14,9 4 2 - - ZO 1010,1 - 0,0
18.10.2017 20:00:00 16,0 15,2 8 4 - - Z 1010,5 6 0,0
18.10.2017 19:00:00 15,9 15,1 9 5 - - Z 1010,4 4,0 0,0
18.10.2017 18:00:00 16,1 15,1 8 4 - - Z 1010,1 4,5 0,0
18.10.2017 17:00:00 16,4 15,4 8 4 - - ZZO 1009,7 4,0 0,0
18.10.2017 16:00:00 16,8 15,7 11 6 - - Z 1010,0 4,5 0,0
18.10.2017 15:00:00 17,1 15,8 9 5 - - ZZO 1010,2 4,0 0,0
18.10.2017 14:00:00 17,4 16,8 9 5 - - OZO 1010,4 2,8 0,0
18.10.2017 13:00:00 15,6 15,3 0 0 - - N 1011,0 3,0 0,0
18.10.2017 12:00:00 13,9 13,6 9 5 - - N 1011,0 3,0 0,2
18.10.2017 11:00:00 13,2 12,8 8 4 - - N 1011,2 2,5 0,8
18.10.2017 10:00:00 13,5 13,1 8 4 - - N 1011,4 4,0 0,0
18.10.2017 09:00:00 12,7 12,3 9 5 - - N 1011,3 4,5 0,2
18.10.2017 08:00:00 12,1 11,6 13 7 - - N 1011,0 5 0,2
18.10.2017 07:00:00 11,9 11,3 13 7 - - N 1011,2 - 0,4
18.10.2017 06:00:00 11,9 11,0 11 6 - - NNO 1011,7 - 0,2
18.10.2017 05:00:00 11,7 10,2 15 8 - - N 1012,0 - 0,0
18.10.2017 04:00:00 11,8 9,9 21 11 - - N 1012,5 - 0,0
18.10.2017 03:00:00 12,0 10,1 16 9 - - N 1013,0 - 0,0
18.10.2017 02:00:00 11,9 10,1 15 8 - - N 1013,6 - 0,0
18.10.2017 01:00:00 11,8 9,7 15 8 - - N 1014,4 - 0,0
18.10.2017 00:00:00 12,4 9,7 11 6 - - N 1014,6 - 0,0
17.10.2017 23:00:00 11,6 9,6 13 7 - - N 1015,5 - 0,0

tt = temperatuur
td = dauwpunt
ff = windsnelheid
fx = windstoten
dd = windrichting
ppp = luchtdruk
vv = zicht
rr = neerslag

Weerstations in de omgeving